[[{"header":{"parameterUnit":"m.s-1","parameterCategory":2,"la1":30.2992,"la2":30.254,"lo1":-89.0895,"lo2":-89.0443,"dy":0.0025,"dx":0.0025,"nx":19,"ny":19,"refTime":"2026-04-09T21:00:00:Z","depth":"0","parameterNumber":2,"parameterNumberName":"U-component_of_CURRENTS"},"data":[0,0,0,0.2648,0.2648,0.2602,0.2602,0.2516,0.2516,0,0,0,0,0,0,0,0,0,0,0,0.2655,0.2655,0.2648,0.2648,0.2602,0.2602,0.2516,0.2516,0,0,0,0,0,0,0,0,0,0,0,0.2655,0.2655,0.2655,0.2648,0.2602,0.2602,0.2517,0.255,0,0,0,0,0,0,0,0,0,0,0.2595,0.2599,0.2655,0.2655,0.2649,0.2603,0.2602,0.2552,0.2548,0.254,0,0.2548,0,0.2549,0.2513,0.2512,0,0,0,0.2617,0.2602,0.2615,0.2655,0.2649,0.2603,0.2614,0.255,0.2546,0.2535,0.2547,0.2544,0.2547,0.2512,0.2512,0.2516,0.2516,0,0,0.2619,0.2616,0.2619,0.2614,0.2657,0.2616,0.2613,0.2547,0.2536,0.2547,0.2543,0.2546,0.2512,0.2512,0.2515,0.2516,0,0,0,0.2648,0.2618,0.2631,0.2617,0.2621,0.2615,0.2612,0.2538,0.2551,0.2542,0.2545,0.2512,0.2511,0.2515,0.2515,0.2551,0,0,0,0.2648,0.2638,0.2633,0.2626,0.2623,0.2579,0.2604,0.2554,0.2548,0.2545,0.2512,0.251,0.2514,0.2515,0.2549,0.2561,0,0,0,0.2653,0.2637,0.2644,0.2627,0.2625,0.2581,0.2586,0.2552,0.2551,0.2512,0.251,0.2514,0.2515,0.2547,0.2559,0.2626,0,0,0,0.2634,0.2603,0.2644,0.2603,0.2626,0.2599,0.2587,0.2544,0.251,0.2511,0.2514,0.2515,0.2547,0.2557,0.2623,0.266,0.2674,0,0,0.2576,0.2596,0.257,0.2606,0.2577,0.2602,0.2583,0.2535,0.2528,0.2527,0.2527,0.255,0.2558,0.2625,0.2717,0.273,0,0,0,0.2538,0.2527,0.2521,0.252,0.253,0.2564,0.2543,0.2558,0.2562,0.2522,0.256,0.2565,0.2606,0.2623,0.2633,0.2698,0.252,0.252,0.252,0.2455,0.2469,0.2437,0.2469,0.2481,0.253,0.2558,0.2588,0.2568,0.2595,0.2601,0.2685,0.2703,0.2711,0.2778,0.2612,0.2612,0.2612,0.2612,0.2371,0.2344,0.2405,0.2383,0.2464,0.2484,0.2584,0.2609,0.2687,0.265,0.269,0.2668,0.2725,0.2792,0.2615,0.2614,0.2614,0.2614,0.2614,0.2294,0.2286,0.2299,0.232,0.2381,0.247,0.2564,0.2644,0.2713,0.2758,0.2799,0.2799,0.2853,0.2787,0.2788,0.2788,0.2788,0.2789,0.2789,0.2204,0.222,0.2216,0.2255,0.2291,0.2388,0.2552,0.265,0.2799,0.2847,0.2847,0.2897,0.2739,0.2727,0.2794,0.2793,0.2793,0.2792,0.2792,0.2076,0.2118,0.2102,0.2126,0.2211,0.2265,0.2465,0.2698,0.283,0.2913,0.3042,0.2908,0.2907,0.2898,0.289,0.2996,0.2996,0.2996,0.2996,0.2006,0.2021,0.2014,0.2034,0.2094,0.2203,0.2342,0.2596,0.2939,0.3094,0.3163,0.3131,0.312,0.3129,0.3115,0.311,0.327,0.327,0.3271,0.194,0.1961,0.1927,0.1961,0.2022,0.2125,0.2209,0.2446,0.2989,0.3287,0.3253,0.3242,0.3195,0.3172,0.318,0.3155,0.3144,0,0]},{"header":{"parameterUnit":"m.s-1","parameterCategory":2,"la1":30.2992,"la2":30.254,"lo1":-89.0895,"lo2":-89.0443,"dy":0.0025,"dx":0.0025,"nx":19,"ny":19,"refTime":"2026-04-09T21:00:00:Z","depth":"0","parameterNumber":3,"parameterNumberName":"V-component_of_CURRENTS"},"data":[0,0,0,-0.0088,-0.0088,-0.0107,-0.0107,-0.0166,-0.0166,0,0,0,0,0,0,0,0,0,0,0,-0.0078,-0.0078,-0.0088,-0.0088,-0.0107,-0.0107,-0.0166,-0.0166,0,0,0,0,0,0,0,0,0,0,0,-0.0078,-0.0078,-0.0078,-0.0088,-0.0107,-0.0107,-0.0166,-0.0145,0,0,0,0,0,0,0,0,0,0,-0.0124,-0.0102,-0.0078,-0.0078,-0.0088,-0.0107,-0.0107,-0.0144,-0.0147,-0.0164,0,-0.0156,0,-0.016,-0.017,-0.017,0,0,0,-0.0098,-0.01,-0.0107,-0.0078,-0.0088,-0.0107,-0.0101,-0.0145,-0.0148,-0.0167,-0.0157,-0.0159,-0.0161,-0.0171,-0.0171,-0.0165,-0.0165,0,0,-0.0097,-0.0084,-0.0105,-0.0109,-0.008,-0.0101,-0.0102,-0.0147,-0.0144,-0.0157,-0.016,-0.0162,-0.0171,-0.0171,-0.0166,-0.0165,0,0,0,-0.0087,-0.0083,-0.0089,-0.0106,-0.0106,-0.0101,-0.0102,-0.0142,-0.0144,-0.0161,-0.0163,-0.0171,-0.0172,-0.0166,-0.0165,-0.0068,0,0,0,-0.0087,-0.0077,-0.0088,-0.0081,-0.0104,-0.0118,-0.0096,-0.0141,-0.0146,-0.0162,-0.0171,-0.0173,-0.0167,-0.0166,-0.0072,-0.0007,0,0,0,-0.008,-0.0076,-0.0075,-0.008,-0.0084,-0.0117,-0.0122,-0.0142,-0.0147,-0.017,-0.0173,-0.0167,-0.0166,-0.0075,-0.0014,0.0028,0,0,0,-0.0072,-0.0024,-0.0074,-0.0024,-0.0084,-0.0059,-0.0122,-0.0118,-0.013,-0.0172,-0.0167,-0.0165,-0.0076,-0.0018,0.0024,0.0124,0.015,0,0,0.0001,-0.0015,0.0015,-0.0029,0.0021,-0.0058,-0.0015,-0.0067,-0.0121,-0.0158,-0.0158,-0.0071,-0.0014,0.0027,0.019,0.0215,0,0,0,0.0047,0.0067,0.0074,0.0085,0.0073,0.0067,0.0007,-0.0023,-0.0056,-0.0122,-0.0075,-0.0042,-0.0019,0.0032,0.0052,-0.0034,-0.016,-0.016,-0.016,0.0162,0.0148,0.0201,0.0185,0.0191,0.0148,0.0139,0.0082,0.0013,0.0012,0.0033,0.013,0.0186,0.0202,0.0112,0.0016,0.0017,0.0017,0.0017,0.0271,0.03,0.0282,0.0322,0.0298,0.031,0.0257,0.0207,0.0193,0.0119,0.0135,0.0129,0.023,0.0126,0.0023,0.0022,0.0022,0.0021,0.0021,0.0334,0.0349,0.0358,0.0405,0.0437,0.0404,0.046,0.0387,0.0296,0.0318,0.0343,0.0342,0.0253,0.0316,0.0317,0.0317,0.0318,0.0318,0.0318,0.0391,0.0406,0.0454,0.0491,0.0532,0.0583,0.0572,0.0576,0.0539,0.0477,0.0476,0.029,0.0221,0.0212,0.0326,0.0324,0.0323,0.0323,0.0322,0.0467,0.0464,0.0548,0.0594,0.07,0.0827,0.0801,0.0844,0.0803,0.0812,0.0544,0.0545,0.0524,0.0507,0.0505,0.0688,0.0688,0.0688,0.0688,0.0517,0.0521,0.0636,0.0733,0.0858,0.0942,0.1128,0.1136,0.0922,0.0788,0.0643,0.0582,0.0571,0.0545,0.0528,0.0522,0.0705,0.0704,0.0704,0.0571,0.0599,0.0693,0.078,0.0926,0.1092,0.1297,0.1409,0.104,0.0689,0.0505,0.0505,0.039,0.038,0.0314,0.0297,0.0276,0,0]}],[{"header":{"parameterUnit":"m.s-1","parameterCategory":2,"la1":30.2992,"la2":30.254,"lo1":-89.0895,"lo2":-89.0443,"dy":0.0025,"dx":0.0025,"nx":19,"ny":19,"refTime":"2026-04-09T21:00:00:Z","depth":"2","parameterNumber":2,"parameterNumberName":"U-component_of_CURRENTS"},"data":[0,0,0,0.2211,0.2213,0.2281,0.2281,0.2318,0.2319,0,0,0,0,0,0,0,0,0,0,0,0.2186,0.2187,0.2211,0.2213,0.2281,0.2281,0.2318,0.2319,0,0,0,0,0,0,0,0,0,0,0,0.2186,0.2186,0.2187,0.2214,0.228,0.2281,0.2318,0.2277,0,0,0,0,0,0,0,0,0,0,0.2216,0.2207,0.2186,0.2187,0.2214,0.228,0.2281,0.2275,0.2279,0.2277,0,0.2298,0,0.2315,0.2321,0.2321,0,0,0,0.2202,0.2204,0.2222,0.2187,0.2215,0.228,0.2247,0.2278,0.2282,0.2283,0.2299,0.2301,0.2315,0.2321,0.2322,0.2386,0.2386,0,0,0.2199,0.2195,0.2219,0.2225,0.2245,0.2245,0.2249,0.2281,0.229,0.2299,0.2302,0.2316,0.2322,0.2322,0.2386,0.2386,0,0,0,0.2195,0.2193,0.2211,0.2223,0.2242,0.2247,0.2252,0.2289,0.2295,0.2302,0.2316,0.2322,0.2322,0.2385,0.2386,0.242,0,0,0,0.2192,0.2192,0.2209,0.2207,0.2242,0.2275,0.2259,0.2293,0.2297,0.2316,0.2322,0.2323,0.2385,0.2385,0.2418,0.243,0,0,0,0.2181,0.219,0.2202,0.2207,0.2242,0.2275,0.2283,0.2294,0.2306,0.2321,0.2323,0.2384,0.2385,0.2416,0.2427,0.2488,0,0,0,0.2168,0.2176,0.2202,0.2223,0.2241,0.2281,0.2283,0.2311,0.2325,0.2322,0.2385,0.2386,0.2415,0.2425,0.2485,0.247,0.2479,0,0,0.2163,0.2176,0.2187,0.2212,0.2244,0.2271,0.2316,0.2334,0.234,0.2367,0.237,0.2418,0.2427,0.2487,0.2529,0.2537,0,0,0,0.2175,0.2182,0.2198,0.2229,0.2267,0.2315,0.2341,0.2365,0.2404,0.2358,0.243,0.2434,0.2471,0.2457,0.2464,0.2391,0.239,0.239,0.239,0.2132,0.2165,0.2187,0.2235,0.2276,0.2345,0.239,0.2429,0.2427,0.2457,0.247,0.255,0.2535,0.254,0.2482,0.2482,0.2482,0.2482,0.2482,0.211,0.2118,0.2183,0.2215,0.2286,0.2338,0.2439,0.2465,0.2548,0.2518,0.2553,0.2503,0.2549,0.2485,0.2485,0.2484,0.2484,0.2484,0.2483,0.2066,0.2074,0.2111,0.2169,0.2242,0.2335,0.2428,0.2509,0.2575,0.2617,0.2623,0.2621,0.2576,0.2645,0.2645,0.2646,0.2646,0.2646,0.2646,0.1996,0.2034,0.205,0.2121,0.2164,0.2263,0.2424,0.2511,0.263,0.2664,0.2664,0.2605,0.26,0.2587,0.2652,0.2651,0.265,0.265,0.2649,0.1928,0.1949,0.1967,0.2,0.2095,0.214,0.2328,0.2512,0.2631,0.2686,0.2701,0.2698,0.2691,0.2684,0.2674,0.2758,0.2758,0.2758,0.2758,0.1868,0.1884,0.1893,0.192,0.1981,0.2079,0.216,0.2321,0.2532,0.2598,0.2604,0.2538,0.2538,0.2518,0.2515,0.2499,0.2538,0.2537,0.2536,0.1819,0.1837,0.1816,0.1853,0.1913,0.1991,0.2001,0.2044,0.2272,0.2521,0.2494,0.2757,0.2675,0.267,0.2649,0.2641,0.2619,0,0]},{"header":{"parameterUnit":"m.s-1","parameterCategory":2,"la1":30.2992,"la2":30.254,"lo1":-89.0895,"lo2":-89.0443,"dy":0.0025,"dx":0.0025,"nx":19,"ny":19,"refTime":"2026-04-09T21:00:00:Z","depth":"2","parameterNumber":3,"parameterNumberName":"V-component_of_CURRENTS"},"data":[0,0,0,0.0072,0.007,-0.0017,-0.0018,-0.0122,-0.0123,0,0,0,0,0,0,0,0,0,0,0,0.0104,0.0104,0.0072,0.007,-0.0017,-0.0018,-0.0122,-0.0123,0,0,0,0,0,0,0,0,0,0,0,0.0104,0.0104,0.0103,0.007,-0.0017,-0.0018,-0.0122,-0.006,0,0,0,0,0,0,0,0,0,0,0.0022,0.0052,0.0104,0.0103,0.0069,-0.0017,-0.0018,-0.0058,-0.0064,-0.0077,0,-0.0083,0,-0.0101,-0.0128,-0.0129,0,0,0,0.0059,0.0057,0.0039,0.0103,0.0069,-0.0017,0.0019,-0.0061,-0.0069,-0.0085,-0.0084,-0.0088,-0.0103,-0.0129,-0.0129,-0.0153,-0.0153,0,0,0.0063,0.008,0.0044,0.0035,0.0056,0.0022,0.0016,-0.0066,-0.0072,-0.0085,-0.0091,-0.0105,-0.013,-0.013,-0.0153,-0.0153,0,0,0,0.0085,0.0083,0.0066,0.0039,0.0025,0.002,0.0013,-0.0069,-0.0073,-0.0092,-0.0106,-0.013,-0.0131,-0.0154,-0.0153,-0.0067,0,0,0,0.0087,0.0096,0.0069,0.0076,0.0027,-0.0025,0.0012,-0.0067,-0.0077,-0.0105,-0.013,-0.0132,-0.0154,-0.0153,-0.0071,-0.0012,0,0,0,0.0106,0.0098,0.0092,0.0077,0.0045,-0.0024,-0.0034,-0.007,-0.0085,-0.0129,-0.0132,-0.0155,-0.0154,-0.0074,-0.0017,0.0016,0,0,0,0.0119,0.0125,0.0093,0.0095,0.0046,0.0027,-0.0034,-0.0064,-0.0095,-0.0131,-0.0154,-0.0153,-0.0074,-0.0021,0.0013,0.008,0.0101,0,0,0.0139,0.0128,0.013,0.01,0.0107,0.0037,0.004,-0.0032,-0.0086,-0.013,-0.0131,-0.007,-0.0018,0.0015,0.0132,0.0152,0,0,0,0.0145,0.0153,0.0147,0.0141,0.0112,0.0102,0.0028,-0.0002,-0.0046,-0.0099,-0.0075,-0.0045,-0.0027,0.0006,0.0022,-0.0149,-0.0149,-0.0149,-0.0149,0.0205,0.0192,0.0212,0.0199,0.0188,0.0141,0.0126,0.0073,0.0005,0.0003,0.002,0.0101,0.0137,0.015,0.0002,0.0002,0.0003,0.0003,0.0003,0.0263,0.028,0.0274,0.0287,0.0275,0.0272,0.0221,0.0177,0.0158,0.0093,0.0106,0.009,0.0173,0.001,0.0009,0.0008,0.0007,0.0006,0.0006,0.0309,0.032,0.0323,0.0358,0.0385,0.0355,0.0404,0.0337,0.025,0.0268,0.0273,0.0272,0.016,0.0264,0.0264,0.0265,0.0265,0.0265,0.0266,0.0354,0.0364,0.0404,0.0433,0.0471,0.0517,0.0505,0.0505,0.0455,0.039,0.0389,0.0189,0.018,0.0174,0.0272,0.0271,0.027,0.0269,0.0269,0.0407,0.0412,0.0481,0.0524,0.0621,0.0732,0.0706,0.0723,0.0681,0.0673,0.0445,0.0438,0.0417,0.0404,0.0402,0.0553,0.0553,0.0553,0.0553,0.0449,0.0454,0.0558,0.0648,0.0762,0.0834,0.0971,0.0933,0.0785,0.0666,0.0661,0.0617,0.0604,0.0588,0.057,0.0569,0.0765,0.0765,0.0765,0.0495,0.0522,0.0607,0.0689,0.0824,0.0963,0.11,0.1076,0.0853,0.077,0.0666,0.0574,0.0492,0.0477,0.0434,0.0413,0.0403,0,0]}],[{"header":{"parameterUnit":"m.s-1","parameterCategory":2,"la1":30.2992,"la2":30.254,"lo1":-89.0895,"lo2":-89.0443,"dy":0.0025,"dx":0.0025,"nx":19,"ny":19,"refTime":"2026-04-09T21:00:00:Z","depth":"4","parameterNumber":2,"parameterNumberName":"U-component_of_CURRENTS"},"data":[0,0,0,0.1451,0.1455,0.1661,0.1662,0.1812,0.1813,0,0,0,0,0,0,0,0,0,0,0,0.1384,0.1386,0.1451,0.1456,0.1661,0.1662,0.1812,0.1813,0,0,0,0,0,0,0,0,0,0,0,0.1383,0.1385,0.1387,0.1457,0.1661,0.1662,0.1811,0.1684,0,0,0,0,0,0,0,0,0,0,0.1499,0.1455,0.1385,0.1387,0.1458,0.1661,0.1662,0.1679,0.1692,0.1687,0,0.1732,0,0.1773,0.182,0.1821,0,0,0,0.1455,0.1445,0.1498,0.1388,0.146,0.166,0.1568,0.1687,0.1702,0.1703,0.1735,0.1741,0.1776,0.1821,0.1822,0.1947,0.1947,0,0,0.1444,0.142,0.1489,0.1508,0.1529,0.1562,0.1575,0.1697,0.1717,0.1735,0.1745,0.1778,0.1822,0.1823,0.1946,0.1947,0,0,0,0.1412,0.1412,0.1465,0.1501,0.1546,0.1568,0.1583,0.1712,0.173,0.1747,0.178,0.1822,0.1824,0.1946,0.1947,0.1985,0,0,0,0.1405,0.1393,0.146,0.1447,0.1545,0.1648,0.1594,0.1722,0.1737,0.1779,0.1822,0.1825,0.1945,0.1946,0.1983,0.1992,0,0,0,0.1372,0.1389,0.1418,0.1445,0.1534,0.1647,0.1674,0.1727,0.1756,0.1821,0.1825,0.1945,0.1946,0.198,0.1989,0.204,0,0,0,0.1332,0.1385,0.1418,0.1491,0.1533,0.1649,0.1673,0.1771,0.183,0.1823,0.1945,0.1947,0.198,0.1987,0.2037,0.1796,0,0,0,0.1369,0.1389,0.1431,0.1465,0.1565,0.162,0.1727,0.1816,0.1842,0.1895,0.19,0.1983,0.1988,0.2039,0.1873,0,0,0,0,0.1422,0.1452,0.149,0.1562,0.1643,0.1726,0.1813,0.1854,0.1942,0.1885,0.1998,0.2,0.2031,0.1884,0.1953,0.1952,0.1952,0.1952,0.1952,0.1421,0.1472,0.154,0.1616,0.1692,0.1808,0.1881,0.195,0.1971,0.2019,0.2043,0.2121,0.1968,0.206,0.206,0.206,0.206,0.206,0.206,0.1452,0.1482,0.1563,0.1649,0.1738,0.1836,0.1958,0.2002,0.2107,0.2093,0.2122,0.1948,0.2065,0.2064,0.2063,0.2063,0.2062,0.2062,0.2062,0.1422,0.1441,0.1514,0.1624,0.1739,0.1859,0.196,0.2063,0.214,0.2184,0.2048,0.2157,0.2142,0.2214,0.2215,0.2215,0.2215,0.2216,0.2216,0.1348,0.1417,0.1475,0.1598,0.1672,0.1795,0.1974,0.2042,0.2149,0.2067,0.2209,0.2174,0.2169,0.2152,0.222,0.2219,0.2219,0.2218,0.2218,0.1294,0.1332,0.1398,0.1468,0.1612,0.1675,0.1873,0.195,0.2009,0.1996,0.2006,0.2015,0.1981,0.1982,0.1956,0.197,0.1967,0.1964,0,0.1236,0.1264,0.1332,0.1396,0.1461,0.1595,0.162,0.1729,0.1829,0.1765,0.2015,0.2022,0.2028,0.1987,0.1983,0.195,0,0,0,0.1195,0.1225,0.1242,0.132,0.1379,0.1465,0.1614,0.1597,0.1808,0.1799,0.1893,0.1911,0.2103,0.2233,0.2205,0.2199,0.217,0,0]},{"header":{"parameterUnit":"m.s-1","parameterCategory":2,"la1":30.2992,"la2":30.254,"lo1":-89.0895,"lo2":-89.0443,"dy":0.0025,"dx":0.0025,"nx":19,"ny":19,"refTime":"2026-04-09T21:00:00:Z","depth":"4","parameterNumber":3,"parameterNumberName":"V-component_of_CURRENTS"},"data":[0,0,0,0.0151,0.015,0.0069,0.0069,-0.0033,-0.0034,0,0,0,0,0,0,0,0,0,0,0,0.0182,0.0181,0.0151,0.015,0.0069,0.0069,-0.0033,-0.0034,0,0,0,0,0,0,0,0,0,0,0,0.0182,0.0181,0.0181,0.015,0.0069,0.0068,-0.0033,0.0025,0,0,0,0,0,0,0,0,0,0,0.0103,0.0134,0.0181,0.0181,0.0149,0.0069,0.0068,0.0028,0.0022,0.0007,0,0.0002,0,-0.0015,-0.004,-0.004,0,0,0,0.0139,0.0139,0.0119,0.0181,0.0149,0.0069,0.0102,0.0024,0.0017,-0.0001,0.0001,-0.0003,-0.0017,-0.004,-0.0041,-0.0078,-0.0078,0,0,0.0144,0.0162,0.0124,0.0115,0.0137,0.0105,0.01,0.002,0.0016,0.0,-0.0006,-0.0018,-0.0041,-0.0041,-0.0078,-0.0078,0,0,0,0.0164,0.0165,0.0146,0.0119,0.0106,0.0103,0.0097,0.0019,0.0014,-0.0007,-0.0019,-0.0041,-0.0042,-0.0079,-0.0078,-0.0012,0,0,0,0.0166,0.0177,0.0149,0.0158,0.0108,0.0061,0.0098,0.0019,0.001,-0.0019,-0.0041,-0.0043,-0.0079,-0.0079,-0.0015,0.0033,0,0,0,0.0184,0.0179,0.0173,0.0159,0.0129,0.0062,0.0051,0.0016,0.0002,-0.004,-0.0043,-0.0079,-0.0079,-0.0017,0.0029,0.0051,0,0,0,0.0199,0.0192,0.0174,0.0163,0.013,0.0099,0.0052,0.0017,-0.0015,-0.0042,-0.0079,-0.0078,-0.0017,0.0026,0.0048,0.0084,0,0,0,0.0198,0.0192,0.0186,0.0168,0.0159,0.0109,0.0097,0.0034,-0.0011,-0.0055,-0.0056,-0.0014,0.0029,0.005,0.0117,0,0,0,0,0.0191,0.0193,0.0185,0.0176,0.0148,0.014,0.0077,0.0051,0.001,-0.0026,-0.0021,0.0004,0.0015,0.0028,-0.0076,-0.0076,-0.0076,-0.0076,-0.0076,0.0218,0.0208,0.0215,0.0205,0.0193,0.0156,0.0141,0.0097,0.0043,0.0039,0.0052,0.0109,0.0124,0.0033,0.0034,0.0034,0.0034,0.0035,0.0035,0.0242,0.0251,0.0255,0.0258,0.0256,0.0248,0.0207,0.0173,0.0153,0.0105,0.0111,0.009,0.0041,0.004,0.0039,0.0038,0.0038,0.0037,0.0037,0.0267,0.0273,0.028,0.0309,0.0333,0.0313,0.035,0.0297,0.0226,0.0237,0.0229,0.0155,0.0155,0.0232,0.0232,0.0232,0.0233,0.0233,0.0233,0.029,0.03,0.0335,0.0362,0.0398,0.0437,0.0432,0.0423,0.0352,0.0323,0.0259,0.0175,0.0169,0.0166,0.0238,0.0237,0.0237,0.0236,0.0236,0.0311,0.0325,0.038,0.0421,0.0506,0.0542,0.0543,0.0517,0.0507,0.0467,0.0354,0.0347,0.0327,0.0317,0.0318,0.0438,0.0439,0.044,0,0.0334,0.0341,0.0429,0.0506,0.059,0.0607,0.0636,0.0614,0.0517,0.0508,0.0481,0.0355,0.0349,0.0325,0.0317,0.032,0,0,0,0.0359,0.0384,0.0451,0.0526,0.0624,0.0643,0.0645,0.063,0.0533,0.0533,0.0459,0.0454,0.0354,0.0253,0.0204,0.0197,0.019,0,0]}]]